Weather Roundup
Issued by NWS Chicago, IL

Home | Current Version | Previous Version | Text Only | Print | Product List | Glossary Off
Versions: 1 2 3 4 5 6 7 8 9 10 11 12 13 14 15 16 17 18 19 20 21 22 23 24 25 26 27 28 29 30 31 32 33 34 35 36 37 38 39 40 41 42 43 44 45 46 47 48 49 50

717
NZUS59 KLOT 301003
HRRLOT

CHICAGO AREA WEATHER ROUNDUP
NATIONAL WEATHER SERVICE CHICAGO/ROMEOVILLE IL
500 AM CDT SAT APR 30 2016

NOTE: "FAIR" INDICATES FEW OR NO CLOUDS BELOW 12,000 FEET WITH NO
SIGNIFICANT WEATHER AND/OR OBSTRUCTIONS TO VISIBILITY.

* THESE STATIONS ARE NOT UNDER NWS QUALITY CONTROL. THEY ALSO MAY NOT
  REPORT WEATHER SUCH AS PRECIPITATION OR FOG.

ILZ005-006-012>014-019>023-301100-
NORTHEAST ILLINOIS

CITY           SKY/WX    TMP DP  RH WIND       PRES   REMARKS
OHARE          CLOUDY    45  41  86 NE9       30.05F
MIDWAY         CLOUDY    48  41  76 E12       30.05F
AURORA         CLOUDY    46  40  79 E9        30.04S
LANSING*       CLOUDY    47  43  86 E8        30.04F
WAUKEGAN       CLOUDY    44  39  82 NE12      30.07S
DUPAGE AIRPORT CLOUDY    45  39  79 E8        30.04F
WHEELING       CLOUDY    44  40  85 NE8       30.07F
MORRIS*        CLOUDY    46  42  88 NE5       30.02S
$$

WIZ051-052-058>065-066-070>072-301100-
SOUTHEAST WISCONSIN

CITY           SKY/WX    TMP DP  RH WIND       PRES   REMARKS
MILWAUKEE      CLOUDY    41  35  79 NE7       30.10R
KENOSHA*       MOCLDY    44  38  79 E12       30.09R
RACINE*        MOCLDY    44  37  76 E9        30.11S
BURLINGTON     CLOUDY    40  35  80 E6        30.08F
WAUKESHA       CLOUDY    36  30  80 NE6       30.11F
$$

INZ001>003-010>013-019-020-301100-
NORTHWEST INDIANA

CITY           SKY/WX    TMP DP  RH WIND       PRES   REMARKS
GARY*          MOCLDY    48  48 100 E12       30.06F
MICHIGAN CITY* NOT AVBL
RENSSELAER*    NOT AVBL
VALPARAISO     CLOUDY    45  42  89 E10       30.05F FOG
$$

LMZ740>746-301100-
SOUTHERN LAKE MICHIGAN

STATION/POSITION TIME  SKY/WX   TEMP WIND        PRES    VSBY
                                AIR  DIR/SP/G
                 (UTC)          (F)  (DEG/KT/KT) (MB)    (MI)
HARRISON CRIB    0900            45   70/ 16/ 17   N/A
BURNHAM HARBOR   1000            45   60/ 11/ 13   N/A
CALUMET HARBOR   0900            47   60/ 11/ 16 1017.4R
BURNS HARBOR     0902            47   90/ 10/ 13 1018.6R
MICHIGAN CITY    0900            46   50/  9/ 10   N/A
$$

ABBREVIATIONS USED IN REMARKS
   TC - TEMPERATURE IN CELSIUS
  WCI - WIND CHILL INDEX
   HX - HEAT INDEX
  VSB - VISIBILITY
$$




USA.gov is the U.S. government's official web portal to all federal, state and local government web resources and services.